This is the latest recevied weather packets stored in our database for station/object N2UGS-WX. If no packets are shown the sender has not sent any weather packets the latest 10 day(s).
| Time | Temp. | Humidity | Pressure | Rain* | Wind** | Luminosity | Snow |
|---|---|---|---|---|---|---|---|
| 1778015703 | 11.67° C | 93% | 1008.1 hPa | 1.52 mm | - | - | - |
| 1778014803 | 12.22° C | 92% | 1007.8 hPa | 0.25 mm | - | - | - |
| 1778014142 | 12.22° C | 90% | 1007.5 hPa | 0.25 mm | - | - | - |
| 1778013243 | 12.22° C | 87% | 1007.1 hPa | 0 mm | - | - | - |
| 1778012342 | 12.78° C | 83% | 1007.5 hPa | 0 mm | - | - | - |
| 1778011742 | 13.33° C | 83% | 1007.5 hPa | 0 mm | - | - | - |
| 1778010842 | 13.89° C | 78% | 1007.1 hPa | 0 mm | - | - | - |
| 1778010002 | 15° C | 74% | 1006.8 hPa | 0 mm | - | - | - |
| 1778009342 | 16.11° C | 71% | 1006.4 hPa | 0 mm | - | - | - |
| 1778008503 | 17.22° C | 66% | 1006.4 hPa | 0 mm | - | - | - |
| 1778007901 | 18.89° C | 63% | 1006.4 hPa | 0 mm | - | - | - |
| 1778007242 | 20° C | 60% | 1006.4 hPa | 0 mm | - | - | - |
| 1778006642 | 20° C | 59% | 1006.1 hPa | 0 mm | - | - | - |
| 1778005803 | 20.56° C | 59% | 1006.1 hPa | 0 mm | - | - | - |
| 1778004842 | 20.56° C | 59% | 1005.8 hPa | 0 mm | - | - | - |
| 1778004002 | 18.33° C | 63% | 1005.8 hPa | 0 mm | - | - | - |
| 1778003102 | 19.44° C | 62% | 1005.8 hPa | 0 mm | - | - | - |
| 1778002202 | 18.89° C | 63% | 1005.8 hPa | 0.25 mm | - | - | - |
| 1778001302 | 18.89° C | 64% | 1005.8 hPa | 0.25 mm | - | - | - |
| 1778000403 | 19.44° C | 60% | 1005.8 hPa | 0.25 mm | - | - | - |
| 1777999502 | 19.44° C | 62% | 1005.4 hPa | 0.25 mm | - | - | - |
| 1777998603 | 19.44° C | 62% | 1005.4 hPa | 0 mm | - | - | - |
| 1777998002 | 18.89° C | 61% | 1004.7 hPa | 0 mm | - | - | - |
| 1777997402 | 17.78° C | 66% | 1005.1 hPa | 0 mm | - | - | - |
| 1777996502 | 16.67° C | 66% | 1005.8 hPa | 0 mm | - | - | - |
* Rain latest hour (hover to see other rain measurements)
** Current wind speed in m/s (hover to see current wind gust speed)